TimeEST,TemperatureF,Dew PointF,Humidity,Sea Level PressureIn,VisibilityMPH,Wind Direction,Wind SpeedMPH,Gust SpeedMPH,PrecipitationIn,Events,Conditions,WindDirDegrees,DateUTC
12:52 AM,10.0,1.0,67,29.96,10.0,Variable,4.6,-,N/A,,Clear,0,2013-01-02 05:52:00
1:52 AM,8.1,1.0,73,29.99,10.0,WNW,5.8,-,N/A,,Clear,300,2013-01-02 06:52:00
3:52 AM,8.1,1.0,73,29.97,10.0,WNW,4.6,-,N/A,,Clear,290,2013-01-02 08:52:00
4:52 AM,10.0,1.0,67,29.95,10.0,WNW,6.9,-,N/A,,Clear,290,2013-01-02 09:52:00
5:52 AM,9.0,1.0,70,29.96,10.0,West,6.9,-,N/A,,Overcast,270,2013-01-02 10:52:00
7:52 AM,10.9,3.0,70,29.94,10.0,WNW,4.6,-,N/A,,Overcast,300,2013-01-02 12:52:00
8:49 AM,19.4,8.6,63,29.90,10.0,West,10.4,16.1,N/A,,Overcast,270,2013-01-02 13:49:00
8:52 AM,19.9,8.1,60,29.94,10.0,West,12.7,21.9,N/A,,Overcast,270,2013-01-02 13:52:00
8:59 AM,21.2,8.6,58,29.91,10.0,West,13.8,23.0,N/A,,Overcast,260,2013-01-02 13:59:00
9:49 AM,21.2,8.6,58,29.93,3.0,West,15.0,26.5,0.00,Snow,Light Snow,270,2013-01-02 14:49:00
10:03 AM,21.2,10.4,63,29.93,2.0,West,11.5,-,0.00,Snow,Light Snow,260,2013-01-02 15:03:00
10:13 AM,21.2,10.4,63,29.93,5.0,West,12.7,19.6,0.00,,Haze,260,2013-01-02 15:13:00
10:52 AM,21.9,10.0,60,29.96,10.0,West,18.4,28.8,0.00,,Overcast,270,2013-01-02 15:52:00
11:52 AM,23.0,10.0,58,29.96,10.0,West,17.3,24.2,N/A,,Overcast,270,2013-01-02 16:52:00
12:52 PM,24.1,10.0,55,29.95,10.0,West,18.4,26.5,N/A,,Overcast,270,2013-01-02 17:52:00
1:52 PM,24.1,9.0,53,29.96,10.0,West,15.0,32.2,N/A,,Overcast,280,2013-01-02 18:52:00
2:52 PM,24.1,10.0,55,29.98,10.0,West,16.1,23.0,N/A,,Overcast,270,2013-01-02 19:52:00
3:52 PM,24.1,12.0,60,30.01,7.0,West,11.5,25.3,0.00,,Overcast,270,2013-01-02 20:52:00
4:52 PM,23.0,10.0,58,30.03,10.0,West,11.5,27.6,N/A,,Overcast,260,2013-01-02 21:52:00
5:52 PM,19.9,3.9,50,30.06,10.0,NW,6.9,17.3,N/A,,Partly Cloudy,310,2013-01-02 22:52:00
6:52 PM,16.0,1.9,54,30.10,10.0,West,9.2,18.4,N/A,,Clear,280,2013-01-02 23:52:00
7:52 PM,12.0,-0.0,59,30.12,10.0,West,11.5,16.1,N/A,,Clear,270,2013-01-03 00:52:00
8:52 PM,9.0,-2.0,61,30.15,10.0,WNW,6.9,-,N/A,,Clear,290,2013-01-03 01:52:00
9:52 PM,6.1,-4.0,63,30.17,10.0,NNW,5.8,-,N/A,,Clear,330,2013-01-03 02:52:00
10:52 PM,3.9,-6.0,64,30.19,10.0,Calm,Calm,-,N/A,,Clear,0,2013-01-03 03:52:00
11:52 PM,1.9,-7.1,66,30.22,10.0,Calm,Calm,-,N/A,,Clear,0,2013-01-03 04:52:00